Location: Eyeline Observatory
(43.2182°N, 78.8632°W)
Time: 02:03:09
(UTC-04:00)

OTV 5 (USA 277) - Visible Passes

Search period start: 18 June 2018 00:00
Search period end: 28 June 2018 00:00
Orbit: 313 x 320 km, 54.5° (Epoch: 16 June)

Date Brightness Start Highest point End Pass type
(mag) Time Alt. Az. Time Alt. Az. Time Alt. Az.
18 Jun ? 03:29:46 10° NW 03:32:15 31° NNE 03:34:44 10° E visible
18 Jun ? 22:59:48 10° WNW 23:01:30 15° NNW 23:03:12 10° NNE visible
19 Jun ? 02:10:35 10° NNW 02:12:04 14° NNE 02:13:35 10° NE visible
19 Jun ? 03:44:04 10° NW 03:46:47 79° NE 03:49:30 10° SE visible
19 Jun ? 21:38:49 10° WSW 21:41:22 38° NNW 21:43:55 10° NE visible
19 Jun ? 23:15:44 10° NNW 23:16:18 10° NNW 23:16:52 10° N visible
20 Jun ? 02:24:34 10° NNW 02:26:48 22° NNE 02:29:02 10° E visible
20 Jun ? 03:58:39 10° WNW 04:01:10 34° SW 04:01:41 31° SSW visible
20 Jun ? 21:53:55 10° WNW 21:56:00 19° NNW 21:58:04 10° NNE visible
21 Jun ? 01:05:35 10° N 01:06:32 11° NNE 01:07:29 10° NE visible
21 Jun ? 02:38:45 10° NW 02:40:35 33° NNW 02:40:35 33° NNW visible
21 Jun ? 22:09:30 10° NW 22:10:45 12° NNW 22:12:00 10° N visible
22 Jun ? 01:19:25 10° NNW 01:21:19 17° NNE 01:22:02 15° NE visible
23 Jun ? 01:33:30 10° NW 01:34:51 22° NNW 01:34:51 22° NNW visible
24 Jun ? 00:14:19 10° NNW 00:15:48 13° NNE 00:17:08 11° NE visible
24 Jun ? 01:47:48 10° NW 01:47:57 11° NW 01:47:57 11° NW visible
25 Jun ? 00:28:19 10° NNW 00:30:22 22° NNE 00:30:22 22° NNE visible
25 Jun ? 23:09:21 10° N 23:10:15 11° NNE 23:11:10 10° NE visible
26 Jun ? 00:42:30 10° NW 00:43:43 22° NNW 00:43:43 22° NNW visible
26 Jun ? 23:23:10 10° NNW 23:25:02 17° NNE 23:26:18 13° NE visible
27 Jun ? 00:56:54 10° WNW 00:57:09 12° WNW 00:57:09 12° WNW visible
27 Jun ? 23:37:15 10° NW 23:39:42 30° NNE 23:39:47 30° NE visible
